Location: Sagn�
(15.2046°N, 12.7898°W)
Time: 14:11:01
(UTC+00:00)

USA 267 - Pass Details

Date: 08 May 2021
Orbit: 1102 x 1106 km, 123.0° (Epoch: 08 June)

Event Time Altitude Azimuth Distance (km) Brightness Sun altitude
Exits shadow 20:47:42 38° 140° (SE) 1,619 3.7 -22.5°
Maximum altitude 20:50:31 87° 53° (NE) 1,104 3.2 -23.1°
Drops below altitude 10° 20:57:04 10° 324° (NW) 2,955 6.4 -24.5°
Sets 20:59:32 0° 324° (NW) 3,914 7.2 -25.0°
